Weather History for KHOU - December, 2014

Change the Weather History Date:

Friday, December 12, 2014

  Actual Average Record
Temperature  
Mean Temperature 66 °F 55 °F  
Max Temperature 75 °F 65 °F 82 °F (1948)
Min Temperature 57 °F 45 °F 25 °F (1989)
Degree Days  
Heating Degree Days 0 11  
Month to date heating degree days 65 121  
Since 1 July heating degree days 313 306  
Cooling Degree Days 2    
Growing Degree Days 17 (Base 50)    
Moisture  
Dew Point 56 °F    
Average Humidity 68    
Maximum Humidity 90    
Minimum Humidity 46    
Precipitation  
Precipitation T in 0.13 in 2.57 in (2002)
Month to date precipitation 0.12 1.57  
Year to date precipitation 38.24 47.60  
Sea Level Pressure  
Sea Level Pressure 30.27 in    
Wind  
Wind Speed 6 mph (SE)    
Max Wind Speed 15 mph    
Max Gust Speed 20 mph    
Visibility 10 miles    
Events      
T = Trace of Precipitation, MM = Missing Value Source: NWS Daily Summary

Daily Weather History Graph

Daily Weather History Graph

Search for Another Location

Airport or City:

Trip Planner

Search our weather history database for the weather conditions in past years. The results will help you decide how hot, cold, wet, or windy it might be!

Date:

Astronomy

Dec. 12, 2014 Rise Set
Actual Time 7:06 AM CST 5:23 PM CST
Civil Twilight 6:40 AM CST 5:49 PM CST
Nautical Twilight 6:10 AM CST 6:19 PM CST
Astronomical Twilight 5:41 AM CST 6:48 PM CST
Moon 11:09 PM CST (12/12) 11:19 AM CST (12/12)
Length of Visible Light 11h 08m
Length of Day
10h 16m
Waning Gibbous, 67% of the Moon is Illuminated
Dec 12
Waning Gibbous
Dec 14
Last Quarter
Dec 21
New
Dec 28
First Quarter
Jan 4
Full

Hourly Weather History & Observations

Time (CST) Temp. Dew Point Humidity Pressure Visibility Wind Dir Wind Speed Gust Speed Precip Events Conditions
12:53 AM 62.1 °F 57.9 °F 86% 30.26 in 10.0 mi SSE 4.6 mph - N/A   Mostly Cloudy
1:53 AM 62.1 °F 57.9 °F 86% 30.26 in 10.0 mi SE 4.6 mph - N/A   Mostly Cloudy
2:53 AM 62.1 °F 57.0 °F 84% 30.27 in 10.0 mi SSE 3.5 mph - 0.00 in   Mostly Cloudy
3:53 AM 61.0 °F 57.0 °F 87% 30.27 in 10.0 mi Calm Calm - N/A   Mostly Cloudy
4:53 AM 61.0 °F 57.0 °F 87% 30.27 in 10.0 mi ESE 3.5 mph - N/A   Mostly Cloudy
5:53 AM 61.0 °F 57.0 °F 87% 30.28 in 10.0 mi ESE 3.5 mph - N/A   Mostly Cloudy
6:53 AM 61.0 °F 57.9 °F 90% 30.29 in 10.0 mi SE 5.8 mph - N/A   Mostly Cloudy
7:53 AM 62.1 °F 57.0 °F 84% 30.30 in 10.0 mi SE 6.9 mph - N/A   Mostly Cloudy
8:53 AM 64.0 °F 57.9 °F 80% 30.31 in 10.0 mi SE 6.9 mph - N/A   Mostly Cloudy
9:53 AM 70.0 °F 55.9 °F 61% 30.33 in 10.0 mi South 10.4 mph - N/A   Mostly Cloudy
10:53 AM 71.1 °F 55.0 °F 57% 30.33 in 10.0 mi South 9.2 mph - N/A   Scattered Clouds
11:53 AM 72.0 °F 55.0 °F 55% 30.30 in 10.0 mi SSE 12.7 mph 16.1 mph N/A   Scattered Clouds
12:53 PM 72.0 °F 54.0 °F 53% 30.27 in 10.0 mi South 10.4 mph - N/A   Scattered Clouds
1:53 PM 73.0 °F 54.0 °F 51% 30.25 in 10.0 mi SSE 9.2 mph 16.1 mph N/A   Scattered Clouds
2:53 PM 73.0 °F 53.1 °F 49% 30.23 in 10.0 mi SSE 12.7 mph - N/A   Scattered Clouds
3:53 PM 71.1 °F 52.0 °F 51% 30.24 in 10.0 mi SSE 8.1 mph - N/A   Scattered Clouds
4:53 PM 69.1 °F 52.0 °F 54% 30.25 in 10.0 mi SSE 6.9 mph - N/A   Scattered Clouds
5:53 PM 66.0 °F 55.0 °F 68% 30.26 in 10.0 mi ESE 6.9 mph - N/A   Scattered Clouds
6:53 PM 64.0 °F 57.9 °F 80% 30.27 in 10.0 mi ESE 5.8 mph - N/A   Mostly Cloudy
7:53 PM 62.1 °F 57.9 °F 86% 30.27 in 10.0 mi ESE 4.6 mph - N/A   Partly Cloudy
8:53 PM 62.1 °F 57.9 °F 86% 30.28 in 10.0 mi ESE 6.9 mph - N/A   Partly Cloudy
9:53 PM 61.0 °F 57.9 °F 90% 30.27 in 10.0 mi ESE 6.9 mph - N/A   Partly Cloudy
10:53 PM 61.0 °F 57.9 °F 90% 30.27 in 10.0 mi ESE 5.8 mph - N/A   Clear
11:53 PM 60.1 °F 57.9 °F 93% 30.26 in 10.0 mi East 3.5 mph - N/A   Clear